SCP
0 0 0 0 0 0 0 0 0 0 0 0 0 0 0 0 0 0 0 0 0 0 0 0 0 0 0 0 0 0 0 0 0 0 0 0 0 0 0 0 0 0 0
0 0 0 0 0 0 0 0 0 0 0 0 0 0 0 0 0 0 0 0 0 0 0 0 0 0 0 0 0 0 0 0 0 0 0 0 0 0 0 0 0 0 0
0 0 0 0 0 0 0 0 0 0 0 0 0 0 0 0 0 0 0 0 0 0 0 0 0 0 0 0 0 0 0 0 0 0 0 0 0 0 0 0 0 0 0
0 0 0 0 0 0 0 0 0 0 0 0 0 0 0 0 0 0 0 0 0 0 0 0 0 0 0 0 0 0 0 0 0 0 0 0 0 0 0 0 0 0 0
0 0 0 0 0 0 0 0 0 0 0 0 0 0 0 0 0 0 0 0 0 0 0 0 0 0 0 0 0 0 0 0 0 0 0 0 0 0 0 0 0 0 0
0 0 0 0 0 0 0 0 0 0 0 0 0 0 0 0 0 0 0 0 0 0 0 0 0 0 0 0 0 0 0 0 0 0 0 0 0 0 0 0 0 0 0
0 0 0 0 0 0 0 0 0 0 0 0 0 -0 0 0 0 0 0 0 0 0 0 0 0 0 0 0 0 0 0 0 0 0 0 0 0 0 0 0 0 0 0
0 0 0 0 0 0 0 0 0 0 0 0 0 0 0 0 0 0 0 0 0 0 0 0 0 0 0 0 0 0 0 0 0 0 0 0 0 0 0 0 0 0 0
0 0 0 0 0 0 0 0 0 0 0 0 0 0 0 0 0 0 0 0 0 0 0 0 0 0 0 0 0 0 0 0 0 0 0 0 0 0 0 0 0 0 0
0 0 0 0 0 0 0 0 0 0 0 0 0 0 0 0 0 0 0 0 0 0 0 0 0 0 0 0 0 0 0 0 0 0 0 0 0 0 0 0 0 0 0
0 0 0 0 0 0 0 0 0 0 0 0 0 0 0 0 0 0 0 0 0 0 0 0 0 0 0 0 0 0 0 0 0 0 0 0 0 0 0 0 0 0 0
0 0 0 0 0 0 0 0 0 0 0 0 0 0 0 0 0 0 0 0 0 0 0 0 0 0 0 0 0 0 0 0 0 0 0 0 0 0 0 0 0 0 0
0 0 0 0 0 0 0 0 0 0 0 0 0 0 0 0 0 0 0 0 0 0 0 0 0 0 0 0 0 0 0 0 0 0 0 0 0 0 0 0 0 0 0
0 0 0 0 0 0 0 0 0 0 0 0 0 0 0 0 0 0 0 0 0 0 0 0 0 0 0 0 0 0 0 0 0 0 0 0 0 0 0 0 0 0 0
0 0 0 0 0 0 0 0 0 0 0 0 0 0 0 0 0 0 0 0 0 0 0 0 0 0 0 0 0 0 0 0 0 0 0 0 0 0 0 0 0 0 0
0 0 0 0 0 0 0 0 0 0 0 0 0 0 0 0 0 0 0 0 0 0 0 0 0 0 0 0 0 0 0 0 0 0 0 0 0 0 0 0 0 0 0
0 0 0 0 0 0 0 0 0 0 0 0 0 0 0 0 0 0 0 0 0 0 0 0 0 0 0 0 0 0 0 0 0 0 0 0 0 0 0 0 0 0 0
0 0 0 0 0 0 0 0 0 0 0 0 0 0 0 0 0 0 0 0 0 0 0 0 0 0 0 0 0 0 0 0 0 0 0 0 0 0 0 0 0 0 0
0 0 0 0 0 0 0 0 0 0 0 0 0 0 0 0 0 0 0 0 0 0 0 0 0 0 0 0 0 0 0 0 0 0 0 0 0 0 0 0 0 0 0
0 0 0 0 0 0 0 0 0 0 0 0 0 0 0 0 0 0 0 0 0 0 0 0 0 0 0 0 0 0 0 0 0 0 0 0 0 0 0 0 0 0 0
0 0 0 0 0 0 0 0 0 0 0 0 0 0 0 0 0 0 0 0 0 0 0 0 0 0 0 0 0 0 0 0 0 0 0 0 0 0 0 0 0 0 0
0 0 0 0 0 0 0 0 0 0 0 0 0 0 0 0 0 0 0 0 0 0 0 0 0 0 0 0 0 0 0 0 0 0 0 0 0 0 0 0 0 0 0
0 0 0 0 0 0 0 0 0 0 0 0 0 0 0 0 0 0 0 0 0 0 0 0 0 0 0 0 0 0 0 0 0 0 0 0 0 0 0 0 0 0 0
0 0 0 0 0 0 0 0 0 0 0 0 0 0 0 0 0 0 0 0 0 0 0 0 0 0 0 0 0 0 0 0 0 0 0 0 0 0 0 0 0 0 0
0 0 0 0 0 0 0 0 0 0 0 0 0 0 0 0 0 0 0 0 0 0 0 0 0 0 0 0 0 0 0 0 0 0 0 0 0 0 0 0 0 0 0
0 0 0 0 0 0 0 0 0 0 0 0 0 0 0 0 0 0 0 0 0 0 0 0 0 0 0 0 0 0 0 0 0 0 0 0 0 0 0 0 0 0 0
Wind_Speed
1 1 2 2 2 3 3 4 4 4 4 5 5 5 5 5 5 4 4 5 5 4 4 5 4 4 3 3 3 3 3 3 4 3 2 2 2 3 4 3 3 3 4
1 1 1 2 2 2 3 3 3 4 4 4 5 5 5 5 5 5 5 5 5 6 5 5 5 4 4 4 3 4 3 3 4 4 3 2 3 3 3 3 4 4 3
2 1 1 1 2 2 3 3 3 3 3 3 4 5 5 5 5 5 6 5 5 5 5 6 6 5 5 4 4 4 3 3 3 4 4 2 2 2 2 3 4 3 4
2 1 1 1 2 2 2 2 2 3 3 4 4 4 4 4 5 5 5 5 5 5 5 5 6 6 7 6 5 5 4 4 3 4 4 3 3 2 2 3 4 3 4
3 2 2 1 1 1 1 2 2 2 2 3 3 3 3 4 4 5 5 5 5 5 4 5 5 7 9 7 5 5 5 5 4 4 4 3 3 3 3 3 4 3 3
3 3 3 2 1 1 1 1 1 1 1 2 3 3 4 3 5 7 5 5 5 5 5 5 5 6 8 9 9 8 8 6 6 5 5 5 5 4 3 3 3 3 4
3 3 3 2 2 1 1 1 1 1 1 2 2 3 4 4 7 7 7 4 4 4 4 4 4 4 6 4 6 8 8 10 9 6 6 6 5 5 4 4 4 4 4
3 3 3 3 3 2 1 1 1 1 2 2 2 2 3 4 6 6 6 3 3 4 4 5 5 4 5 5 5 5 5 5 7 5 5 6 5 5 5 5 4 4 3
3 3 3 3 3 3 2 2 2 1 1 1 2 2 2 3 5 6 5 2 3 4 4 4 5 5 8 9 5 4 4 4 6 8 9 8 8 8 6 3 3 3 3
5 4 4 3 3 3 3 2 2 1 2 2 2 2 3 3 5 6 5 2 3 3 3 4 6 6 8 8 5 5 5 4 3 4 5 5 4 4 6 4 4 3 2
5 5 4 3 3 3 2 2 1 1 1 2 2 2 3 3 5 6 5 3 3 3 3 2 3 6 7 7 6 4 6 4 2 3 3 2 2 2 2 3 3 3 4
5 5 5 4 3 3 2 2 1 1 1 2 2 2 2 3 4 5 6 5 4 3 3 2 3 6 6 6 5 5 6 4 2 2 2 2 2 2 2 2 2 2 3
5 5 5 4 3 3 2 2 1 1 2 2 2 2 2 2 3 5 6 6 5 3 3 4 5 6 5 4 5 5 3 2 2 2 3 3 2 2 1 1 1 1 2
5 5 4 4 4 3 2 2 2 2 2 2 2 2 2 2 2 2 3 3 4 3 2 4 4 5 4 3 3 3 2 2 2 2 2 2 1 1 2 1 1 1 2
5 5 4 4 3 3 3 3 3 3 4 4 3 3 3 3 4 6 3 2 2 2 1 1 1 1 1 1 1 1 1 1 2 1 2 1 1 2 2 1 1 1 2
5 5 4 3 3 3 3 4 5 5 7 8 7 6 5 6 7 8 7 6 5 4 2 2 2 2 2 2 2 2 2 2 2 2 2 2 2 2 2 1 1 2 3
5 5 4 4 3 3 3 3 4 5 6 6 7 7 7 7 7 7 7 6 6 5 3 3 3 3 3 3 2 3 3 2 2 2 2 2 2 2 2 2 2 2 3
5 6 5 4 3 3 3 3 3 4 4 4 5 7 7 7 7 7 7 4 3 3 3 3 3 3 3 3 3 3 3 2 2 3 2 3 3 3 3 3 3 3 3
5 4 4 3 3 3 3 3 3 4 4 4 4 4 6 7 7 7 5 3 3 3 3 3 3 3 3 3 3 3 3 3 3 3 3 3 3 3 3 3 3 5 4
4 7 6 4 3 3 3 3 3 4 4 4 4 4 3 4 3 3 3 2 3 3 3 3 3 4 3 3 4 4 3 3 3 3 3 3 3 3 4 4 4 4 4
4 5 8 5 4 4 4 4 4 4 4 4 4 5 7 4 3 4 3 3 3 3 4 4 3 4 4 3 4 4 5 4 4 4 3 3 3 3 3 4 4 4 4
4 4 4 4 4 4 4 4 4 4 4 5 5 5 8 4 3 3 4 4 3 3 3 3 4 4 4 4 4 4 5 5 5 4 4 4 4 4 4 4 4 4 4
3 4 4 4 4 6 5 4 3 4 4 4 4 4 4 3 3 3 4 3 3 3 3 3 4 4 4 4 4 5 6 6 5 5 5 5 4 4 4 4 5 5 4
3 4 4 4 4 4 4 4 4 4 4 4 4 4 4 3 3 4 4 3 3 3 3 3 4 5 6 5 4 4 5 5 5 5 7 6 6 5 5 5 5 5 5
3 4 4 4 4 4 4 4 4 4 4 4 4 4 3 3 3 4 3 3 3 4 4 4 4 4 6 6 6 5 8 11 10 6 6 6 6 6 6 6 5 5 5
4 4 4 4 4 4 4 4 4 4 4 4 4 4 3 3 3 3 3 3 3 3 4 4 4 5 6 6 7 9 11 11 11 11 6 5 6 6 6 5 6 6 6
Wind_Direction
228 202 202 199 188 185 190 198 197 192 187 186 189 190 194 191 189 191 189 187 193 198 200 202 211 200 196 197 197 201 210 205 236 260 247 253 249 268 288 289 286 286 288
310 221 202 190 175 190 202 204 197 196 193 192 189 192 198 197 193 193 194 195 196 201 203 204 213 206 202 199 200 208 215 213 217 250 260 250 248 250 262 275 288 288 283
341 318 224 200 197 207 212 210 199 196 195 194 189 196 201 202 200 202 198 200 204 206 204 204 208 200 208 207 205 209 215 224 216 229 252 254 256 253 264 280 278 277 283
349 350 315 250 229 220 207 205 206 197 193 193 198 201 203 205 205 206 206 203 203 209 210 209 209 206 208 207 210 208 207 216 214 221 240 251 253 248 242 267 284 277 283
349 349 341 318 287 229 204 201 201 199 203 199 197 200 204 206 207 205 209 206 204 206 210 214 219 220 218 217 213 204 201 208 214 221 233 248 249 239 242 248 269 285 286
339 337 343 353 342 306 239 211 201 200 201 199 206 202 207 221 224 222 218 208 202 204 210 212 221 225 229 233 236 232 221 214 216 220 232 234 242 240 242 246 261 274 283
335 336 344 346 344 324 294 239 225 215 198 208 219 213 218 226 232 230 229 213 200 204 205 206 217 222 228 224 236 244 246 248 241 230 228 231 233 231 229 244 247 254 262
331 333 340 341 333 333 317 268 249 234 219 222 227 229 231 235 238 234 226 209 199 209 212 209 210 215 223 223 221 227 235 242 246 242 230 232 231 225 220 228 237 256 271
329 327 328 328 323 318 305 286 260 246 254 246 239 231 238 250 240 232 228 201 207 216 221 216 213 213 229 233 223 222 236 247 255 255 252 246 246 242 232 214 214 233 264
320 316 313 311 303 296 288 283 275 249 248 256 264 244 239 248 240 233 224 210 215 222 224 225 228 226 230 231 215 207 224 238 240 253 259 260 251 244 247 225 211 222 244
318 313 310 305 294 285 286 289 283 270 258 250 259 264 254 253 249 241 229 215 209 217 228 231 234 234 238 240 233 218 231 234 220 232 241 248 251 243 243 231 222 222 233
320 316 308 304 297 299 286 284 271 255 246 247 253 266 261 261 269 251 235 233 226 212 223 230 238 241 243 246 244 242 245 243 213 216 228 233 235 238 241 235 234 242 243
321 316 311 308 299 292 275 270 262 240 242 252 251 261 270 271 270 268 245 240 236 230 230 238 243 244 246 248 250 250 245 229 213 224 232 236 236 233 232 243 263 269 280
312 310 309 310 306 297 283 267 255 248 248 251 252 257 265 266 264 265 248 237 232 241 240 235 237 242 246 251 253 245 238 229 228 234 240 244 239 227 227 227 249 263 283
309 307 308 307 304 305 298 282 270 247 240 247 244 240 243 254 259 267 263 245 223 221 210 194 208 222 227 235 239 242 233 233 243 245 249 247 242 238 247 242 235 243 249
310 312 309 305 304 306 308 311 302 288 282 275 268 261 259 262 270 269 263 253 243 218 199 204 217 222 226 230 236 246 246 240 240 239 236 238 240 237 242 249 245 237 255
296 301 300 300 299 299 300 305 312 314 302 292 283 278 273 273 272 271 266 255 240 218 208 212 215 219 226 229 232 238 247 253 248 238 234 233 232 233 233 240 245 250 260
299 298 300 292 289 289 291 291 290 294 302 302 295 289 286 281 276 273 267 250 238 226 216 217 223 225 224 228 230 236 244 246 242 238 233 231 222 219 225 233 236 239 255
303 300 295 290 288 286 287 287 283 281 282 287 292 290 291 290 284 273 259 236 233 237 232 226 226 226 228 229 232 233 234 236 237 234 230 228 222 216 226 230 236 251 258
302 308 311 303 297 294 291 288 286 282 279 278 280 285 293 293 286 282 265 244 237 236 237 235 232 230 231 229 229 229 230 232 234 232 230 228 226 222 227 234 236 241 249
303 305 312 310 301 297 292 287 283 279 278 279 278 279 281 276 271 269 265 257 247 239 235 237 237 232 230 228 227 226 226 229 230 231 231 230 226 231 234 234 238 242 246
296 297 298 297 298 295 292 287 285 282 280 283 290 291 290 285 274 272 265 260 256 253 243 236 236 234 227 225 225 226 227 229 227 224 227 230 230 233 234 236 237 239 240
296 296 297 298 296 297 303 299 293 292 291 293 293 293 294 287 279 273 270 266 262 259 253 243 239 240 236 230 226 223 225 227 224 217 219 225 227 230 232 236 237 237 240
297 296 296 297 298 293 293 294 295 295 296 297 298 296 292 288 287 285 278 269 265 264 260 251 243 241 242 245 241 234 230 231 225 220 216 217 221 227 231 234 235 237 239
304 300 298 296 296 296 294 294 295 296 297 297 298 298 296 294 291 288 284 279 273 266 266 265 255 245 243 246 247 245 247 248 245 233 215 212 216 221 226 231 234 236 240
308 303 298 296 293 292 291 291 292 294 293 294 294 292 290 289 288 289 289 285 284 283 281 273 262 259 257 254 250 252 255 253 249 246 233 210 211 219 219 226 229 232 234